sat.trackr.live / text

‹ back to catalog

STARLINK-30890

NORAD 58362 · 2023-177M

PAYLOAD ACTIVE UNKNOWN

§ Identity

Operator
Country
US
Launch date
2023-11-18
Launch site
AFETR
Launch vehicle
Mass (kg)
RCS (m²)

Purposes: comms

External: N2YO · Heavens-Above · Gunter

§ Orbital elements

Epoch: 2026-05-25T02:20:21.886656Z

Period
94.27 min
Inclination
43.0047°
Eccentricity
0.0001392
Mean motion
15.27570839 rev/d
Perigee alt
482.1 km
Apogee alt
484.0 km
Semi-major
6,861.2 km
B*
-1.9314e-5
RAAN
279.0401°
Arg perigee
255.8391°
Mean anomaly
104.2306°
Rev number
13,986

§ Raw data

STARLINK-308901 58362U 23177M   26145.09747554 -.00000793  00000+0 -19314-4 0  99952 58362  43.0047 279.0401 0001392 255.8391 104.2306 15.27570839139865

JSON: /api/v1/satellites/58362 · /tle

For live sub-satellite position, see the globe view (requires WebGL).

§ Visibility from observer

Set your observer location to see the next 7 days of passes ≥ 10°. The values pass through the URL so the page stays shareable.

No JS? Fill the form by hand. The geolocation button needs JavaScript.